Location: Azul
(36.7830°S, 59.8500°W)
Time: 10:32:38
(UTC-03:00)

QB50P2 - Visible Passes

Search period start: 22 October 2021 00:00
Search period end: 01 November 2021 00:00
Orbit: 592 x 610 km, 97.9° (Epoch: 21 October)

Date Brightness Start Highest point End Pass type
(mag) Time Alt. Az. Time Alt. Az. Time Alt. Az.
29 Oct ? 00:44:16 11° SSE 00:44:16 11° SSE 00:44:23 10° S visible
30 Oct ? 00:55:36 12° S 00:55:36 12° S 00:55:54 10° S visible
31 Oct ? 01:06:56 12° S 01:06:56 12° S 01:07:21 10° S visible
